TimeCDT,TemperatureF,Dew PointF,Humidity,Sea Level PressureIn,VisibilityMPH,Wind Direction,Wind SpeedMPH,Gust SpeedMPH,PrecipitationIn,Events,Conditions,WindDirDegrees,DateUTC
12:53 AM,78.1,70.0,76,29.91,10.0,ESE,12.7,-,N/A,,Clear,110,2013-05-27 05:53:00
1:53 AM,77.0,71.1,82,29.89,10.0,ESE,9.2,18.4,N/A,,Clear,110,2013-05-27 06:53:00
2:15 AM,77.0,71.6,83,29.93,10.0,ESE,13.8,20.7,N/A,,Mostly Cloudy,120,2013-05-27 07:15:00
2:34 AM,77.0,71.6,83,29.93,10.0,ESE,12.7,-,N/A,,Scattered Clouds,110,2013-05-27 07:34:00
2:53 AM,77.0,71.1,82,29.88,10.0,ESE,10.4,-,N/A,,Mostly Cloudy,110,2013-05-27 07:53:00
3:53 AM,75.9,71.1,85,29.85,10.0,ESE,12.7,-,N/A,,Overcast,120,2013-05-27 08:53:00
4:14 AM,77.0,71.6,83,29.90,10.0,ESE,13.8,19.6,N/A,,Overcast,120,2013-05-27 09:14:00
4:42 AM,77.0,71.6,83,29.90,10.0,ESE,15.0,24.2,N/A,,Overcast,120,2013-05-27 09:42:00
4:53 AM,77.0,71.1,82,29.85,10.0,SE,13.8,-,N/A,,Overcast,130,2013-05-27 09:53:00
5:53 AM,75.9,71.1,85,29.85,10.0,ESE,11.5,-,N/A,,Overcast,120,2013-05-27 10:53:00
6:53 AM,75.9,71.1,85,29.85,10.0,ESE,10.4,-,N/A,,Overcast,120,2013-05-27 11:53:00
7:53 AM,75.9,71.1,85,29.87,9.0,ESE,10.4,-,N/A,,Overcast,120,2013-05-27 12:53:00
8:53 AM,75.9,70.0,82,29.87,8.0,SE,13.8,-,N/A,,Overcast,130,2013-05-27 13:53:00
9:45 AM,77.0,69.8,78,29.93,9.0,SE,13.8,21.9,N/A,,Overcast,130,2013-05-27 14:45:00
9:53 AM,77.0,70.0,79,29.88,9.0,SE,15.0,-,N/A,,Overcast,140,2013-05-27 14:53:00
10:53 AM,78.1,70.0,76,29.88,10.0,SE,12.7,19.6,N/A,,Overcast,140,2013-05-27 15:53:00
11:53 AM,80.1,69.1,69,29.88,10.0,SE,13.8,24.2,N/A,,Overcast,140,2013-05-27 16:53:00
12:34 PM,82.4,69.8,66,29.92,10.0,SE,12.7,23.0,N/A,,Overcast,140,2013-05-27 17:34:00
12:44 PM,82.4,69.8,66,29.92,10.0,SE,12.7,-,N/A,,Overcast,140,2013-05-27 17:44:00
12:53 PM,82.9,69.1,63,29.87,10.0,SE,13.8,-,N/A,,Overcast,130,2013-05-27 17:53:00
1:03 PM,84.2,69.8,62,29.91,10.0,SE,17.3,25.3,N/A,,Overcast,140,2013-05-27 18:03:00
1:53 PM,88.0,68.0,51,29.84,10.0,SE,16.1,29.9,N/A,,Scattered Clouds,130,2013-05-27 18:53:00
2:53 PM,88.0,66.9,49,29.81,10.0,SE,15.0,24.2,N/A,,Mostly Cloudy,130,2013-05-27 19:53:00
3:53 PM,90.0,66.9,46,29.78,10.0,SE,18.4,26.5,N/A,,Clear,130,2013-05-27 20:53:00
4:53 PM,91.0,66.9,45,29.75,10.0,SE,20.7,31.1,N/A,,Clear,140,2013-05-27 21:53:00
5:53 PM,93.0,66.0,41,29.73,10.0,ESE,19.6,25.3,N/A,,Clear,120,2013-05-27 22:53:00
6:53 PM,91.0,64.9,42,29.71,10.0,SE,19.6,25.3,N/A,,Clear,140,2013-05-27 23:53:00
7:53 PM,89.1,64.9,45,29.72,10.0,SE,12.7,-,N/A,,Clear,140,2013-05-28 00:53:00
8:53 PM,88.0,64.9,46,29.71,10.0,SE,11.5,19.6,N/A,,Clear,140,2013-05-28 01:53:00
9:53 PM,86.0,66.0,51,29.73,10.0,SE,11.5,-,N/A,,Clear,130,2013-05-28 02:53:00
10:53 PM,84.9,66.0,53,29.76,10.0,SE,8.1,-,N/A,,Clear,130,2013-05-28 03:53:00
11:53 PM,84.0,69.1,61,29.75,10.0,ESE,13.8,20.7,N/A,,Clear,120,2013-05-28 04:53:00